{"data":{"norad_id":63983,"intl_designator":"2025-100B","name":"SCS-01 B","alt_names":[],"object_type":"PAYLOAD","status":"ACTIVE","operator":null,"country":"PRC","launch_date":"2025-05-14","launch_site_code":"JSC","launch_vehicle":null,"mission":null,"orbit_class":"UNKNOWN","rcs_meters":null,"size_class":null,"mass_kg":null,"dimensions":null,"purposes":[],"wikipedia_slug":null,"has_3d_model":false,"image_url":null,"decayed_at":null,"tle_current":{"epoch":"2026-09-21T23:41:46.590720Z","epoch_age_seconds":71198,"freshness":"FRESH","line1":"1 63983U 25100B   26264.98734480  .00024703  00000+0  54449-3 0  9994","line2":"2 63983  97.3555 342.8004 0006767 305.2134  54.8480 15.43891979 75827","mean_motion":15.43891979,"eccentricity":0.0006767,"inclination_deg":97.3555,"raan_deg":342.8004,"arg_perigee_deg":305.2134,"mean_anomaly_deg":54.848,"bstar":0.00054449,"rev_number":7582,"period_min":93.270774094746,"perigee_km":430.02551622488,"apogee_km":439.24592282349,"semimajor_km":6812.7727195242,"source":"CELESTRAK","updated_at":"2026-09-22T09:00:29.477510Z"}}}